Location: ?
(35.4064°N, 139.3593°E)
Time: 13:48:36
(UTC+00:00)

ARIANE 6 FM1 Upper Stage - Pass Details

Date: 09 December 2025
Orbit: 522 x 610 km, 62.0° (Epoch: 13 January)

Event Time Altitude Azimuth Distance (km) Brightness Sun altitude
Rises 08:34:39 0° 303° (WNW) 2,675 6.7 -12.9°
Reaches altitude 10° 08:37:53 10° 275° (W) 1,795 6.4 -13.6°
Maximum altitude 08:39:43 13° 247° (WSW) 1,628 6.4 -13.9°
Drops below altitude 10° 08:41:34 10° 220° (SW) 1,811 6.2 -14.3°
Sets 08:44:53 0° 192° (SSW) 2,722 6.6 -14.9°
